TimeCDT,TemperatureF,Dew PointF,Humidity,Sea Level PressureIn,VisibilityMPH,Wind Direction,Wind SpeedMPH,Gust SpeedMPH,PrecipitationIn,Events,Conditions,WindDirDegrees,DateUTC
12:15 AM,42.3,25.2,51,29.96,10.0,SW,4.6,-,N/A,,Clear,230,2012-10-08 05:15:00
12:35 AM,42.1,24.8,50,29.96,10.0,Calm,Calm,-,N/A,,Clear,0,2012-10-08 05:35:00
12:55 AM,39.4,24.8,56,29.95,10.0,Calm,Calm,-,N/A,,Clear,0,2012-10-08 05:55:00
1:15 AM,41.0,24.8,53,29.95,10.0,SSE,3.5,-,N/A,,Clear,150,2012-10-08 06:15:00
1:35 AM,39.6,25.2,56,29.95,10.0,SE,5.8,-,N/A,,Clear,130,2012-10-08 06:35:00
1:55 AM,39.6,25.0,56,29.95,10.0,Calm,Calm,-,N/A,,Clear,0,2012-10-08 06:55:00
2:15 AM,40.1,24.8,54,29.95,10.0,Calm,Calm,-,N/A,,Clear,0,2012-10-08 07:15:00
2:35 AM,38.7,24.8,58,29.95,10.0,Calm,Calm,-,N/A,,Clear,0,2012-10-08 07:35:00
2:55 AM,39.7,25.2,56,29.94,10.0,Calm,Calm,-,N/A,,Clear,0,2012-10-08 07:55:00
3:15 AM,39.9,25.3,56,29.93,10.0,Calm,Calm,-,N/A,,Clear,0,2012-10-08 08:15:00
3:35 AM,40.1,25.3,56,29.92,10.0,Calm,Calm,-,N/A,,Clear,0,2012-10-08 08:35:00
3:55 AM,39.4,25.2,57,29.92,10.0,Calm,Calm,-,N/A,,Clear,0,2012-10-08 08:55:00
4:15 AM,40.1,25.2,55,29.92,10.0,Calm,Calm,-,N/A,,Clear,0,2012-10-08 09:15:00
4:35 AM,39.9,25.2,56,29.92,10.0,Calm,Calm,-,N/A,,Clear,0,2012-10-08 09:35:00
4:55 AM,40.3,25.3,55,29.92,10.0,Calm,Calm,-,N/A,,Clear,0,2012-10-08 09:55:00
5:15 AM,39.7,25.5,57,29.91,10.0,Calm,Calm,-,N/A,,Clear,0,2012-10-08 10:15:00
5:35 AM,40.1,25.5,56,29.91,10.0,Calm,Calm,-,N/A,,Clear,0,2012-10-08 10:35:00
5:55 AM,40.3,25.5,56,29.91,10.0,Calm,Calm,-,N/A,,Clear,0,2012-10-08 10:55:00
6:15 AM,39.2,25.5,58,29.91,10.0,SE,4.6,-,N/A,,Clear,140,2012-10-08 11:15:00
6:35 AM,40.6,25.3,54,29.90,10.0,Calm,Calm,-,N/A,,Clear,0,2012-10-08 11:35:00
6:55 AM,40.1,25.2,55,29.90,10.0,South,3.5,-,N/A,,Clear,170,2012-10-08 11:55:00
7:15 AM,39.4,25.2,57,29.89,10.0,Calm,Calm,-,N/A,,Clear,0,2012-10-08 12:15:00
7:35 AM,40.1,25.2,55,29.89,10.0,Calm,Calm,-,N/A,,Clear,0,2012-10-08 12:35:00
7:55 AM,40.1,25.3,56,29.89,10.0,SE,3.5,-,N/A,,Clear,130,2012-10-08 12:55:00
8:15 AM,40.8,25.3,54,29.88,10.0,SE,3.5,-,N/A,,Clear,130,2012-10-08 13:15:00
8:35 AM,40.8,25.2,54,29.88,10.0,SE,3.5,-,N/A,,Clear,130,2012-10-08 13:35:00
8:55 AM,43.0,25.3,50,29.88,10.0,ESE,3.5,-,N/A,,Clear,120,2012-10-08 13:55:00
9:15 AM,45.9,25.2,44,29.88,10.0,Calm,Calm,-,N/A,,Scattered Clouds,0,2012-10-08 14:15:00
9:35 AM,48.6,24.3,39,29.88,10.0,WSW,8.1,-,N/A,,Scattered Clouds,250,2012-10-08 14:35:00
9:55 AM,50.0,24.1,36,29.87,10.0,SW,9.2,-,N/A,,Clear,230,2012-10-08 14:55:00
10:15 AM,53.1,23.7,32,29.86,10.0,SW,6.9,-,N/A,,Clear,230,2012-10-08 15:15:00
10:35 AM,56.1,23.0,28,29.86,10.0,SW,9.2,17.3,N/A,,Clear,230,2012-10-08 15:35:00
10:55 AM,59.9,22.1,23,29.86,10.0,SW,11.5,-,N/A,,Clear,230,2012-10-08 15:55:00
11:15 AM,62.6,20.8,20,29.84,10.0,SW,15.0,19.6,N/A,,Clear,220,2012-10-08 16:15:00
11:35 AM,64.4,20.5,19,29.83,10.0,SW,16.1,21.9,N/A,,Clear,230,2012-10-08 16:35:00
11:55 AM,66.2,20.5,17,29.82,10.0,WSW,13.8,23.0,N/A,,Clear,240,2012-10-08 16:55:00
12:15 PM,68.2,18.9,15,29.82,10.0,SW,15.0,19.6,N/A,,Clear,230,2012-10-08 17:15:00
12:55 PM,70.5,20.1,15,29.80,10.0,WSW,12.7,19.6,N/A,,Clear,250,2012-10-08 17:55:00
1:15 PM,71.6,20.3,14,29.79,10.0,WSW,11.5,17.3,N/A,,Clear,240,2012-10-08 18:15:00
1:35 PM,72.1,20.5,14,29.78,10.0,WSW,9.2,-,N/A,,Clear,240,2012-10-08 18:35:00
1:55 PM,73.8,20.8,14,29.78,10.0,WSW,13.8,17.3,N/A,,Clear,250,2012-10-08 18:55:00
2:15 PM,73.9,22.6,15,29.78,10.0,West,13.8,17.3,N/A,,Clear,280,2012-10-08 19:15:00
2:35 PM,74.7,23.0,15,29.77,10.0,West,9.2,-,N/A,,Clear,270,2012-10-08 19:35:00
2:55 PM,74.3,22.8,15,29.77,10.0,West,12.7,19.6,N/A,,Clear,270,2012-10-08 19:55:00
3:15 PM,74.7,23.7,15,29.76,10.0,WNW,5.8,17.3,N/A,,Clear,300,2012-10-08 20:15:00
3:35 PM,74.8,23.9,15,29.76,10.0,West,5.8,21.9,N/A,,Clear,260,2012-10-08 20:35:00
3:55 PM,75.6,23.7,15,29.75,10.0,West,11.5,18.4,N/A,,Clear,260,2012-10-08 20:55:00
4:15 PM,74.8,23.7,15,29.74,10.0,WSW,9.2,18.4,N/A,,Clear,240,2012-10-08 21:15:00
4:35 PM,75.2,24.1,15,29.74,10.0,West,9.2,16.1,N/A,,Clear,280,2012-10-08 21:35:00
4:55 PM,75.0,24.8,15,29.73,10.0,WSW,9.2,-,N/A,,Clear,250,2012-10-08 21:55:00
5:15 PM,75.7,24.4,15,29.73,10.0,WSW,9.2,-,N/A,,Clear,240,2012-10-08 22:15:00
5:35 PM,74.5,24.8,16,29.74,10.0,WSW,8.1,-,N/A,,Clear,250,2012-10-08 22:35:00
5:55 PM,73.9,26.8,17,29.74,10.0,WNW,6.9,-,N/A,,Clear,300,2012-10-08 22:55:00
6:15 PM,72.5,27.7,19,29.74,10.0,NW,8.1,-,N/A,,Clear,320,2012-10-08 23:15:00
6:35 PM,72.0,30.0,21,29.75,10.0,North,10.4,-,N/A,,Scattered Clouds,360,2012-10-08 23:35:00
6:55 PM,68.0,32.0,26,29.76,10.0,North,6.9,-,N/A,,Clear,10,2012-10-08 23:55:00
7:35 PM,61.2,32.0,33,29.77,10.0,NNE,5.8,-,N/A,,Clear,20,2012-10-09 00:35:00
7:55 PM,60.6,32.0,34,29.78,10.0,North,5.8,-,N/A,,Clear,10,2012-10-09 00:55:00
8:35 PM,58.1,32.0,37,29.79,10.0,Calm,Calm,-,N/A,,Clear,0,2012-10-09 01:35:00
8:55 PM,57.6,32.4,39,29.80,10.0,North,3.5,-,N/A,,Clear,360,2012-10-09 01:55:00
9:15 PM,54.3,32.4,43,29.81,10.0,Calm,Calm,-,N/A,,Clear,0,2012-10-09 02:15:00
9:35 PM,52.3,32.4,47,29.82,10.0,Calm,Calm,-,N/A,,Clear,0,2012-10-09 02:35:00
9:55 PM,53.4,33.6,47,29.83,10.0,North,4.6,-,N/A,,Clear,10,2012-10-09 02:55:00
10:15 PM,54.5,34.3,47,29.82,10.0,NNE,5.8,-,N/A,,Clear,30,2012-10-09 03:15:00
10:55 PM,54.5,36.0,50,29.83,10.0,North,4.6,-,N/A,,Clear,10,2012-10-09 03:55:00
11:35 PM,47.8,33.4,57,29.84,10.0,WNW,3.5,-,N/A,,Clear,300,2012-10-09 04:35:00